Weather History for Tallahassee, FL

Change the Weather History Date:

Tuesday, March 26, 2013

  Actual Average Record
Temperature  
Mean Temperature 7 °C 17 °C  
Max Temperature 13 °C 24 °C 32 °C (1929)
Min Temperature 1 °C 9 °C -2 °C (1979)
Degree Days  
Heating Degree Days 20    
Month to date heating degree days 260  
Since 1 July heating degree days 1238  
Cooling Degree Days 0    
Month to date cooling degree days 17  
Year to date cooling degree days 67  
Moisture  
Dew Point -6 °C    
Average Humidity 39    
Maximum Humidity 54    
Minimum Humidity 24    
Precipitation  
Precipitation 0.00 mm 4.32 mm 5.21 mm (1926)
Month to date precipitation 4.30 5.11  
Year to date precipitation 17.51 14.30  
Sea Level Pressure  
Sea Level Pressure 1023 hPa    
Wind  
Wind Speed 17 km/h (NW)    
Max Wind Speed 34 km/h    
Max Gust Speed 50 km/h    
Visibility 16 kilometers    
Events      
T = Trace of Precipitation, MM = Missing Value Source: NWS Daily Summary

Daily Weather History Graph

Daily Weather History Graph

Search for Another Location

Airport:

Trip Planner

Search our weather history database for the weather conditions in past years. The results will help you decide how hot, cold, wet, or windy it might be!

Date:

Astronomy

Mar. 26, 2013 Rise Set
Actual Time 7:33 AM EDT 7:52 PM EDT
Civil Twilight 7:09 AM EDT 8:16 PM EDT
Nautical Twilight 6:41 AM EDT 8:44 PM EDT
Astronomical Twilight 6:13 AM EDT 9:13 PM EDT
Moon 7:27 PM EDT (3/26) 6:48 AM EDT (3/26)
Length of Visible Light 13h 07m
Length of Day
12h 19m
Waxing Gibbous, 99% of the Moon is Illuminated
Mar 26
Waxing Gibbous
Mar 27
Full
Apr 3
Last Quarter
Apr 10
New
Apr 18
First Quarter

Hourly Weather History & Observations

Time (EDT) Temp. Windchill Dew Point Humidity Pressure Visibility Wind Dir Wind Speed Gust Speed Precip Events Conditions
12:53 AM 8.3 °C - -4.4 °C 41% 1020.5 hPa 16.1 km NW 13.0 km/h / 3.6 m/s - N/A   Clear
1:53 AM 8.3 °C - -6.7 °C 34% 1021.0 hPa 16.1 km NW 18.5 km/h / 5.1 m/s - N/A   Clear
2:53 AM 8.0 °C 4.5 °C -6.0 °C 37% 1021.2 hPa 16.1 km NNW 24.1 km/h / 6.7 m/s 35.2 km/h / 9.8 m/s N/A   Clear
3:53 AM 6.1 °C 3.4 °C -5.6 °C 43% 1021.3 hPa 16.1 km NNW 13.0 km/h / 3.6 m/s - N/A   Clear
4:53 AM 5.0 °C 1.8 °C -5.6 °C 47% 1021.4 hPa 16.1 km NNW 14.8 km/h / 4.1 m/s - N/A   Clear
5:53 AM 4.4 °C 1.4 °C -6.1 °C 47% 1021.7 hPa 16.1 km NW 13.0 km/h / 3.6 m/s - N/A   Clear
6:53 AM 2.8 °C 0.2 °C -5.0 °C 57% 1022.5 hPa 16.1 km WNW 9.3 km/h / 2.6 m/s - N/A   Clear
7:53 AM 2.8 °C -0.2 °C -5.0 °C 57% 1023.0 hPa 16.1 km WNW 11.1 km/h / 3.1 m/s - N/A   Clear
8:53 AM 5.0 °C 0.8 °C -6.1 °C 45% 1023.6 hPa 16.1 km NW 22.2 km/h / 6.2 m/s - N/A   Clear
9:53 AM 6.7 °C 2.8 °C -7.2 °C 37% 1023.9 hPa 16.1 km NNW 24.1 km/h / 6.7 m/s 35.2 km/h / 9.8 m/s N/A   Clear
10:53 AM 7.8 °C 3.8 °C -7.2 °C 34% 1024.1 hPa 16.1 km NNW 29.6 km/h / 8.2 m/s - N/A   Clear
11:53 AM 9.4 °C - -7.2 °C 31% 1024.0 hPa 16.1 km NNW 18.5 km/h / 5.1 m/s 35.2 km/h / 9.8 m/s N/A   Partly Cloudy
12:53 PM 10.0 °C - -6.7 °C 31% 1023.9 hPa 16.1 km NW 16.7 km/h / 4.6 m/s 33.3 km/h / 9.3 m/s N/A   Partly Cloudy
1:53 PM 11.7 °C - -6.7 °C 27% 1023.3 hPa 16.1 km West 25.9 km/h / 7.2 m/s 35.2 km/h / 9.8 m/s N/A   Clear
2:53 PM 12.2 °C - -7.2 °C 25% 1022.7 hPa 16.1 km North 16.7 km/h / 4.6 m/s 35.2 km/h / 9.8 m/s N/A   Clear
3:53 PM 12.8 °C - -7.2 °C 24% 1022.2 hPa 16.1 km North 25.9 km/h / 7.2 m/s 35.2 km/h / 9.8 m/s N/A   Clear
4:53 PM 12.8 °C - -7.2 °C 24% 1022.0 hPa 16.1 km NNW 22.2 km/h / 6.2 m/s 37.0 km/h / 10.3 m/s N/A   Clear
5:53 PM 13.3 °C - -6.7 °C 25% 1022.0 hPa 16.1 km NW 27.8 km/h / 7.7 m/s 37.0 km/h / 10.3 m/s N/A   Clear
6:53 PM 12.2 °C - -6.7 °C 26% 1022.5 hPa 16.1 km North 20.4 km/h / 5.7 m/s 31.5 km/h / 8.7 m/s N/A   Clear
7:53 PM 11.1 °C - -5.6 °C 31% 1023.2 hPa 16.1 km NW 13.0 km/h / 3.6 m/s - N/A   Clear
8:53 PM 10.0 °C - -4.4 °C 36% 1024.2 hPa 16.1 km NNW 11.1 km/h / 3.1 m/s - N/A   Clear
9:53 PM 8.9 °C - -3.9 °C 41% 1025.3 hPa 16.1 km Variable 9.3 km/h / 2.6 m/s - N/A   Clear
10:53 PM 7.8 °C 6.2 °C -3.3 °C 46% 1026.0 hPa 16.1 km Variable 9.3 km/h / 2.6 m/s - N/A   Clear
11:53 PM 6.7 °C 4.9 °C -3.3 °C 49% 1026.3 hPa 16.1 km Variable 9.3 km/h / 2.6 m/s - N/A   Clear